カタログに戻る

FENGYUN 1C DEB

運用中SSO
NORAD 37690·DEBRIS·🇨🇳 China

打ち上げ May 10, 1999 から Taiyuan Satellite Launch Center

Loading…

次のパス (今後24時間)

TLE

古いSource: Space-Track

元期: Aug 26, 2026, 08:18 UTC

1 37690U 99025ELF 26238.34641382  .00001185  00000-0  59655-3 0  9990
2 37690  98.7368 280.6094 0038222 279.9041 139.8849 14.17949965674011

AllMySatでFENGYUN 1C DEBをリアルタイム追跡

Download on the App Store